Location: Smyrna_Hopewell
(35.6500°N, 81.0330°W)
Time: 06:14:58
(UTC-04:00)

Cosmos 2221 - Visible Passes

Search period start: 28 May 2017 00:00
Search period end: 07 June 2017 00:00
Orbit: 592 x 618 km, 82.5° (Epoch: 27 May)

Date Brightness Start Highest point End Pass type
(mag) Time Alt. Az. Time Alt. Az. Time Alt. Az.
28 May 5.2 00:45:11 10° NE 00:46:08 13° NE 00:46:08 13° NE visible
28 May 4.8 02:21:41 10° NNW 02:22:59 18° NW 02:22:59 18° NW visible
29 May 4.9 00:57:24 10° NNE 00:59:04 19° NE 00:59:04 19° NE visible
29 May 5.1 02:35:23 10° NW 02:35:55 12° NW 02:35:55 12° NW visible
30 May 4.6 01:10:04 10° N 01:12:00 25° NNE 01:12:00 25° NNE visible
31 May 4.5 01:22:59 10° N 01:24:58 27° N 01:24:58 27° N visible
01 Jun 4.6 01:36:09 10° NNW 01:37:56 23° NNW 01:37:56 23° NNW visible
02 Jun 4.9 00:12:37 10° NNE 00:14:02 16° NE 00:14:02 16° NE visible
02 Jun 4.9 01:49:34 10° NNW 01:50:54 17° NW 01:50:54 17° NW visible
03 Jun 4.5 00:25:00 10° NNE 00:27:02 23° NE 00:27:02 23° NE visible
03 Jun 5.2 02:03:27 10° NW 02:03:54 12° NW 02:03:54 12° NW visible
04 Jun 4.3 00:37:44 10° N 00:40:02 29° NNE 00:40:02 29° NNE visible
05 Jun 4.2 00:50:44 10° N 00:53:02 31° NNW 00:53:02 31° NNW visible
05 Jun 5.0 23:28:12 10° NE 23:29:12 12° ENE 23:29:12 12° ENE visible
06 Jun 4.5 01:03:58 10° NNW 01:06:04 25° NW 01:06:04 25° NW visible
06 Jun 4.5 23:40:06 10° NNE 23:42:14 20° NE 23:42:14 20° NE visible
